Location: ???????
(55.3754°N, 39.3545°E)
Time: 14:16:17
(UTC+00:00)

PAYLOAD B - Pass Details

Date: 14 April 2026
Orbit: 848 x 869 km, 99.0° (Epoch: 17 May)

Event Time Altitude Azimuth Distance (km) Brightness Sun altitude
Rises 17:22:54 0° 166° (SSE) 3,406 6.9 -8.2°
Reaches altitude 10° 17:25:15 10° 167° (SSE) 2,473 6.2 -8.5°
Maximum altitude 17:30:45 78° 254° (WSW) 875 4.4 -9.2°
Drops below altitude 10° 17:36:17 10° 341° (NNW) 2,487 7.5 -9.8°
Sets 17:38:40 0° 343° (NNW) 3,428 8.2 -10.1°
